Terug naar catalogus

KUIPER-00117

ActiefCommunicatieLEO
NORAD 65949·PAYLOAD·🇺🇸 United States

Gelanceerd Oct 14, 2025 vanaf Cape Canaveral Space Force Station

Loading…

Volgende Passages (komende 24 uur)

TLE

VersSource: CelesTrak SupGP

Epoch: Sep 14, 2026, 19:47 UTC

1 65949C 25228C   26257.82453704  .00002390  00000+0  31281-3 0  2575
2 65949  51.8969 241.7074 0000760  48.7566 180.3626 14.79926103    16

Volg KUIPER-00117 in realtime met AllMySat

Download on the App Store